Change the Weather History Date:

Monday, February 17, 2014

  Actual Average Record
Temperature  
Mean Temperature 44 °F -  
Max Temperature 48 °F 48 °F 60 °F (2015)
Min Temperature 41 °F 37 °F 23 °F (1990)
Degree Days  
Heating Degree Days 20    
Moisture  
Dew Point 38 °F    
Average Humidity 76    
Maximum Humidity 89    
Minimum Humidity 63    
Precipitation  
Precipitation 0.44 in - - ()
Sea Level Pressure  
Sea Level Pressure 29.81 in    
Wind  
Wind Speed 12 mph (South)    
Max Wind Speed 17 mph    
Max Gust Speed 25 mph    
Visibility 10 miles    
Events Rain    
Averages and records for this station are not official NWS values.
T = Trace of Precipitation, MM = Missing Value Source: NWS Daily Summary

Daily Weather History Graph

Daily Weather History Graph

Search for Another Location

Airport or City:

Trip Planner

Search our weather history database for the weather conditions in past years. The results will help you decide how hot, cold, wet, or windy it might be!

Date:

Astronomy

Feb. 17, 2014 Rise Set
Actual Time 7:11 AM PST 5:35 PM PST
Civil Twilight 6:39 AM PST 6:07 PM PST
Nautical Twilight 6:03 AM PST 6:43 PM PST
Astronomical Twilight 5:28 AM PST 7:19 PM PST
Moon 8:51 PM PST (2/17) 8:00 AM PST (2/17)
Length of Visible Light 11h 27m
Length of Day
10h 24m
Waning Gibbous, 93% of the Moon is Illuminated
Feb 17
Waning Gibbous
Feb 22
Last Quarter
Mar 1
New
Mar 8
First Quarter
Mar 16
Full

Hourly Weather History & Observations

Time (PST) Temp. Windchill Dew Point Humidity Pressure Visibility Wind Dir Wind Speed Gust Speed Precip Events Conditions
12:53 AM 44.1 °F 37.4 °F 37.9 °F 79% 29.75 in 10.0 mi South 13.8 mph 21.9 mph 0.15 in Rain Light Rain
1:53 AM 44.1 °F 38.6 °F 39.0 °F 82% 29.74 in 10.0 mi South 10.4 mph 16.1 mph 0.01 in   Overcast
2:53 AM 44.1 °F 37.7 °F 39.0 °F 82% 29.75 in 9.0 mi South 12.7 mph 23.0 mph 0.04 in Rain Light Rain
3:53 AM 43.0 °F 35.1 °F 39.0 °F 86% 29.73 in 10.0 mi SSE 17.3 mph 25.3 mph 0.05 in Rain Light Rain
4:53 AM 42.1 °F 34.9 °F 37.0 °F 82% 29.73 in 10.0 mi SSE 13.8 mph - 0.01 in Rain Light Rain
5:53 AM 41.0 °F 35.8 °F 37.9 °F 89% 29.73 in 9.0 mi ESE 8.1 mph - 0.03 in Rain Light Rain
6:53 AM 42.1 °F 36.6 °F 37.9 °F 85% 29.74 in 9.0 mi SE 9.2 mph - 0.03 in Rain Light Rain
7:53 AM 43.0 °F 37.7 °F 39.0 °F 86% 29.73 in 10.0 mi SE 9.2 mph - 0.05 in Rain Light Rain
8:53 AM 44.1 °F 38.1 °F 39.0 °F 82% 29.72 in 10.0 mi SSE 11.5 mph 21.9 mph 0.01 in   Overcast
9:53 AM 45.0 °F 38.2 °F 39.0 °F 80% 29.74 in 10.0 mi South 15.0 mph 21.9 mph 0.00 in   Mostly Cloudy
10:53 AM 48.0 °F - 39.9 °F 74% 29.77 in 10.0 mi South 13.8 mph 21.9 mph N/A   Mostly Cloudy
11:38 AM 48.2 °F - 39.2 °F 71% 29.78 in 10.0 mi South 11.5 mph 17.3 mph N/A   Mostly Cloudy
11:53 AM 48.9 °F - 39.0 °F 69% 29.79 in 10.0 mi South 17.3 mph 21.9 mph N/A   Mostly Cloudy
12:53 PM 48.0 °F - 37.9 °F 68% 29.79 in 10.0 mi SSW 13.8 mph 20.7 mph N/A   Mostly Cloudy
1:53 PM 48.0 °F - 37.0 °F 66% 29.81 in 10.0 mi SW 10.4 mph 20.7 mph N/A   Mostly Cloudy
2:53 PM 48.0 °F - 37.9 °F 68% 29.82 in 10.0 mi SSW 15.0 mph 24.2 mph N/A   Mostly Cloudy
3:53 PM 48.9 °F - 37.0 °F 64% 29.84 in 10.0 mi South 12.7 mph 19.6 mph N/A   Scattered Clouds
4:53 PM 46.9 °F - 37.0 °F 68% 29.85 in 10.0 mi South 9.2 mph 16.1 mph N/A   Mostly Cloudy
5:53 PM 46.0 °F 41.9 °F 34.0 °F 63% 29.86 in 10.0 mi South 8.1 mph - N/A   Mostly Cloudy
6:53 PM 45.0 °F 40.1 °F 35.1 °F 68% 29.88 in 10.0 mi South 9.2 mph 19.6 mph N/A   Scattered Clouds
7:53 PM 45.0 °F 40.6 °F 36.0 °F 71% 29.90 in 10.0 mi South 8.1 mph - N/A   Mostly Cloudy
8:53 PM 42.1 °F 37.1 °F 37.0 °F 82% 29.92 in 10.0 mi SSE 8.1 mph - N/A   Scattered Clouds
9:53 PM 44.1 °F 38.6 °F 37.0 °F 76% 29.94 in 10.0 mi South 10.4 mph - 0.01 in   Mostly Cloudy
10:53 PM 43.0 °F 39.5 °F 37.9 °F 82% 29.95 in 10.0 mi SSE 5.8 mph - 0.02 in Rain Light Rain
11:53 PM 45.0 °F 39.7 °F 39.0 °F 80% 29.95 in 10.0 mi SSE 10.4 mph - 0.03 in   Overcast